GW1477 Weather Reports


time (UTC)temp
C
wind
direction
speed
KPH
gust
KPH
rain 1hr
cm
rain 24hr
cm
rain mn
cm
humidity
%
barometer
mb
20260503220044 12 184 0.0 3.2 0.00 0.00 0.00 33
20260503215439 12 177 1.6 6.4 0.00 0.00 0.00 31
20260503214810 12 229 0.0 4.8 0.00 0.00 0.00 31
20260503214224 13 191 1.6 4.8 0.00 0.00 0.00 31
20260503213647 13 183 0.0 6.4 0.00 0.00 0.00 31
20260503212440 13 153 1.6 9.7 0.00 0.00 0.00 30
20260503211827 12 324 3.2 9.7 0.00 0.00 0.00 32
20260503211227 12 23 4.8 9.7 0.00 0.00 0.00 31
20260503210647 12 337 6.4 12.9 0.00 0.00 0.00 31
20260503210017 12 184 1.6 3.2 0.00 0.00 0.00 33
20260503205430 12 208 3.2 6.4 0.00 0.00 0.00 32
20260503204242 12 188 3.2 16.1 0.00 0.00 0.00 32
20260503203038 12 231 1.6 6.4 0.00 0.00 0.00 31
20260503202422 12 180 0.0 12.9 0.00 0.00 0.00 33
20260503201816 12 358 8.0 11.3 0.00 0.00 0.00 31
20260503201234 12 223 0.0 4.8 0.00 0.00 0.00 33
20260503200625 12 217 1.6 9.7 0.00 0.00 0.00 32
20260503200026 12 213 1.6 4.8 0.00 0.00 0.00 33
20260503195409 12 187 3.2 11.3 0.00 0.00 0.00 33
20260503194821 12 178 0.0 3.2 0.00 0.00 0.00 31
20260503194241 11 218 4.8 4.8 0.00 0.00 0.00 33
20260503193621 12 175 4.8 9.7 0.00 0.00 0.00 31
20260503193043 12 350 9.7 11.3 0.00 0.00 0.00 31
20260503192436 12 217 1.6 3.2 0.00 0.00 0.00 32
20260503191842 12 168 1.6 4.8 0.00 0.00 0.00 33
20260503191249 11 193 3.2 4.8 0.00 0.00 0.00 34
20260503190636 11 175 3.2 6.4 0.00 0.00 0.00 33
20260503190052 11 220 3.2 6.4 0.00 0.00 0.00 35
20260503185423 11 176 1.6 6.4 0.00 0.00 0.00 33
20260503184846 11 174 0.0 6.4 0.00 0.00 0.00 33
20260503184216 12 157 1.6 11.3 0.00 0.00 0.00 31
20260503183031 11 139 3.2 6.4 0.00 0.00 0.00 35
20260503182446 11 172 1.6 4.8 0.00 0.00 0.00 35
20260503181853 11 174 3.2 9.7 0.00 0.00 0.00 33
20260503181236 10 175 1.6 12.9 0.00 0.00 0.00 34
20260503180651 11 196 1.6 11.3 0.00 0.00 0.00 34
20260503180027 11 184 1.6 3.2 0.00 0.00 0.00 35
20260503175417 10 116 1.6 11.3 0.00 0.00 0.00 35
20260503174820 11 346 9.7 14.5 0.00 0.00 0.00 35
20260503174213 10 263 3.2 9.7 0.00 0.00 0.00 35
20260503173628 10 197 4.8 4.8 0.00 0.00 0.00 34
20260503173035 11 340 4.8 12.9 0.00 0.00 0.00 35
20260503172413 11 198 4.8 9.7 0.00 0.00 0.00 36
20260503171814 10 287 4.8 9.7 0.00 0.00 0.00 35
20260503171254 11 240 3.2 3.2 0.00 0.00 0.00 35
20260503150630 6 182 1.6 11.3 0.00 0.00 0.00 46
20260503130620 3 163 6.4 9.7 0.00 0.00 0.00 54
20260503110645 0 178 0.0 0.0 0.00 0.00 0.00 78
20260503081246 0 145 0.0 0.0 0.00 0.00 0.00 76
20260503072411 0 174 0.0 0.0 0.00 0.00 0.00 77
20260503071838 0 177 0.0 0.0 0.00 0.00 0.00 77
20260503071227 0 178 0.0 0.0 0.00 0.00 0.00 77
20260503070623 0 178 0.0 0.0 0.00 0.00 0.00 78
20260503054237 2 181 0.0 1.6 0.00 0.00 0.00 75
20260503053623 2 181 0.0 4.8 0.00 0.00 0.00 74
20260503053051 2 175 0.0 0.0 0.00 0.00 0.00 74
20260503052424 2 182 0.0 0.0 0.00 0.00 0.00 73
20260503051854 2 180 3.2 4.8 0.00 0.00 0.00 74
20260503051244 2 187 1.6 1.6 0.00 0.00 0.00 73
20260503050649 2 175 0.0 4.8 0.00 0.00 0.00 74
20260503050053 2 346 3.2 3.2 0.00 0.00 0.00 73
20260503045418 2 175 0.0 1.6 0.00 0.00 0.00 74
20260503044845 2 174 3.2 3.2 0.00 0.00 0.00 74
20260503044242 2 177 0.0 3.2 0.00 0.00 0.00 74
20260503043639 2 177 0.0 3.2 0.00 0.00 0.00 76
20260503043016 2 351 3.2 4.8 0.00 0.00 0.00 73
20260503042443 2 173 0.0 1.6 0.00 0.00 0.00 75
20260503041823 2 180 0.0 0.0 0.00 0.00 0.00 74
20260503040623 2 182 0.0 0.0 0.00 0.00 0.00 75
20260503040047 2 179 0.0 0.0 0.00 0.00 0.00 74
20260503035451 2 180 0.0 0.0 0.00 0.00 0.00 74
20260503034851 2 178 0.0 0.0 0.00 0.00 0.00 73
20260503034216 3 184 0.0 0.0 0.00 0.00 0.00 73
20260503033638 3 177 0.0 3.2 0.00 0.00 0.00 72
20260503032419 3 209 0.0 0.0 0.00 0.00 0.00 71
20260503031839 3 178 0.0 0.0 0.00 0.00 0.00 71
20260503031244 3 179 0.0 0.0 0.00 0.00 0.00 70
20260503030642 3 160 1.6 3.2 0.00 0.00 0.00 70
20260503030024 3 167 1.6 1.6 0.00 0.00 0.00 69
20260503025424 3 216 0.0 0.0 0.00 0.00 0.00 69
20260503024829 3 174 0.0 0.0 0.00 0.00 0.00 69
20260503024233 3 177 1.6 1.6 0.00 0.00 0.00 69
20260503023618 3 180 0.0 1.6 0.00 0.00 0.00 67
20260503023036 3 173 0.0 0.0 0.00 0.00 0.00 65
20260503022452 3 175 0.0 3.2 0.00 0.00 0.00 64
20260503021852 3 178 0.0 0.0 0.00 0.00 0.00 64
20260503021241 4 180 0.0 0.0 0.00 0.00 0.00 63
20260503020644 3 179 0.0 1.6 0.00 0.00 0.00 63
20260503020048 3 180 0.0 1.6 0.00 0.00 0.00 65
20260503014817 3 179 0.0 0.0 0.00 0.00 0.00 66
20260503014252 3 178 0.0 0.0 0.00 0.00 0.00 67
20260503013627 3 177 0.0 1.6 0.00 0.00 0.00 67
20260503013014 3 179 0.0 0.0 0.00 0.00 0.00 67
20260503011811 3 176 0.0 0.0 0.00 0.00 0.00 67
20260503011231 3 177 0.0 0.0 0.00 0.00 0.00 67
20260503010623 3 175 0.0 0.0 0.00 0.00 0.00 66
20260503010028 3 180 0.0 0.0 0.00 0.00 0.00 65
20260503005414 4 181 0.0 0.0 0.00 0.00 0.00 66
20260503004843 4 181 0.0 0.0 0.00 0.00 0.00 64
20260503004211 4 178 0.0 1.6 0.00 0.00 0.00 63
20260503003641 5 178 0.0 1.6 0.00 0.00 0.00 62
20260503003018 5 187 0.0 0.0 0.00 0.00 0.00 62
20260503001815 5 188 0.0 6.4 0.00 0.00 0.00 59
20260503001232 5 181 0.0 4.8 0.00 0.00 0.00 56
20260503000048 5 169 1.6 3.2 0.00 0.00 0.00 56
20260502235410 5 0 4.8 14.5 0.00 0.00 0.00 55
20260502234841 6 166 1.6 12.9 0.00 0.00 0.00 54
20260502234245 6 192 0.0 3.2 0.00 0.00 0.00 53
20260502233641 6 140 0.0 1.6 0.00 0.00 0.00 52
20260502232429 6 173 0.0 1.6 0.00 0.00 0.00 51
20260502231840 6 179 0.0 1.6 0.00 0.00 0.00 51
20260502231212 6 169 0.0 0.0 0.00 0.00 0.00 51
20260502230630 6 182 0.0 3.2 0.00 0.00 0.00 50
20260502230040 6 17 4.8 6.4 0.00 0.00 0.00 50
20260502225434 6 178 1.6 4.8 0.00 0.00 0.00 50
20260502224832 6 150 0.0 1.6 0.00 0.00 0.00 51
20260502224227 6 78 6.4 9.7 0.00 0.00 0.00 51
20260502223035 6 182 0.0 4.8 0.00 0.00 0.00 49
20260502222421 7 178 0.0 1.6 0.00 0.00 0.00 51
20260502221839 6 156 1.6 3.2 0.00 0.00 0.00 50
20260502221254 7 144 6.4 9.7 0.00 0.00 0.00 49